Volver al catálogo

FENGYUN 1C DEB

ActivoPO
NORAD 31083·DEBRIS·🇨🇳 China

Lanzado May 10, 1999 desde Taiyuan Satellite Launch Center

Loading…

Próximos Pases (próximas 24 horas)

TLE

ActualizadoSource: Space-Track

Época: Sep 14, 2026, 15:29 UTC

1 31083U 99025BGD 26257.64541014  .00009236  00000-0  15796-2 0  9997
2 31083  98.6613  34.7570 0029119 170.1021 312.7769 14.68820776 17440

Sigue FENGYUN 1C DEB en tiempo real con AllMySat

Download on the App Store